UME 2 (ISS-B)

导读 | 豆包AI

UME 2 (ISS-B)是日本于1978年2月16日发射的一颗卫星,是日本早期航天探索活动的组成部分。该卫星作为国际卫星发射序列中的一颗,承担着空间技术验证相关任务,助力日本积累航天发射、卫星在轨运行等方面的技术经验,为日本后续航天产业发展,包括后续参与国际空间站项目奠定了初步的技术实践基础,在日本航天发展历程中是较早的实践尝试。

基本信息
目录编号:
10674
目录名称:
UME 2 (ISS-B)
国际标识:
1978-018A
轨道中心:
EARTH
卫星名称:
UME 2 (ISS-B)
卫星全名:
--
卫星状态:
在轨 (已飞行17605 天)
发射日期:
1978-02-16 UTC
国别 :
日本 (JP)
星等 :
--
轨道信息
数据来源 国际轨道数据
星历时间: 2026-04-30T23:31:44+0800
6小时前
查看轨道信息
半长轴: 7473.618km
偏心率: 0.016302
轨道倾角: 69.365°
近地点辐角 157.028°
升交点赤经 347.124°
平近点角 217.883°
近地点: 973.646km
远地点: 1217.316km
周期: 107.166分钟
每日圈数: 13.437128
详细信息
使用方式:
暂无
2D轨道图
3D轨道图
轨道高度分析图
轨道倾角分析图
轨道综合分析图
查看轨道综合分析图